Regional Weather Roundup
Issued by NWS Wilmington, NC

Home | Current Version | Previous Version | Text Only | Print | Product List | Glossary On
Versions: 1 2 3 4 5 6 7 8 9 10 11 12 13 14 15 16 17 18 19 20 21 22 23 24 25 26 27 28 29 30 31 32 33 34 35 36 37 38 39 40 41 42 43 44 45 46 47 48 49 50
000
ASUS42 KILM 231813
RWRILM
RWRILM
REGIONAL HOURLY WEATHER ROUNDUP
NATIONAL WEATHER SERVICE WILMINGTON NC
100 PM EST THU NOV 23 2017

NOTE: "FAIR" INDICATES FEW OR NO CLOUDS BELOW 12,000 FEET WITH NO
SIGNIFICANT WEATHER AND/OR OBSTRUCTIONS TO VISIBILITY.

...............WFO WILMINGTON COUNTY WARNING AREA...............

......COASTAL NC AND SC COUNTIES......

CITY           SKY/WX    TMP DP  RH WIND       PRES   REMARKS
WILMINGTON     PTSUNNY   50  38  63 N9        30.07F
N MYRTLE BEACH CLOUDY    48  39  71 N9        30.05F
MYRTLE BEACH   CLOUDY    48  40  73 N8        30.07F

......INLAND NC AND SC COUNTIES.......

CITY           SKY/WX    TMP DP  RH WIND       PRES   REMARKS
LUMBERTON      CLOUDY    48  34  58 NE9       30.09F
ELIZABETHTOWN  NOT AVBL
WHITEVILLE     CLOUDY    47  35  64 NE5       30.08F
FLORENCE       CLOUDY    49  34  56 NE10      30.08F
DARLINGTON     CLOUDY    50  32  50 E7        30.10F
KINGSTREE      FAIR      46  36  66 N3        30.06F
HARTSVILLE     FAIR      48  32  53 NE9       30.07F
BENNETTSVILLE  FAIR      52  32  46 CALM      30.09F
CONWAY         FAIR      46  36  66 N7        30.07F
GEORGETOWN     LGT RAIN  46  46 100 N5        30.06S
MARION         FAIR      46  34  61 N7        30.08F

....................REST OF NORTH CAROLINA......................

.........EASTERN NC.........

CITY           SKY/WX    TMP DP  RH WIND       PRES   REMARKS
CAPE HATTERAS  SUNNY     55  43  63 N12G20    30.07F
JACKSONVILLE   CLOUDY    47  37  68 N8        30.10F
MOREHEAD CITY  CLOUDY    53  43  68 N13       30.07F
KENANSVILLE    CLOUDY    46  34  61 N10       30.12F
NEW BERN       CLOUDY    48  40  73 N9        30.11F
ELIZABETH CITY CLOUDY    48  35  60 N5        30.12F

.........CENTRAL NC.........

CITY           SKY/WX    TMP DP  RH WIND       PRES   REMARKS
RALEIGH DURHAM PTSUNNY   48  26  42 S3        30.13F
ROCKY MOUNT    MOSUNNY   47  31  53 CALM      30.13F
ROANOKE RAPIDS NOT AVBL
FAYETTEVILLE   CLOUDY    48  32  53 N10       30.11F
HOFFMAN        PTSUNNY   48  30  48 E6        30.10F

.........WESTERN NC.........

CITY           SKY/WX    TMP DP  RH WIND       PRES   REMARKS
CHARLOTTE      MOSUNNY   52  29  41 S5        30.09F
GREENSBORO     PTSUNNY   47  26  44 CALM      30.09F
HICKORY        NOT AVBL
BOONE          NOT AVBL
ASHEVILLE      NOT AVBL

.....................REST OF SOUTH CAROLINA.....................

.........EASTERN SC.........

CITY           SKY/WX    TMP DP  RH WIND       PRES   REMARKS
CHARLESTON     LGT RAIN  48  47  96 N7        30.03F FOG
BEAUFORT MCAS  LGT RAIN  50  50 100 N12       30.01F FOG
HILTON HEAD    NOT AVBL

.........CENTRAL SC.........

CITY           SKY/WX    TMP DP  RH WIND       PRES   REMARKS
COLUMBIA       CLOUDY    53  35  50 NE6       30.07F
ORANGEBURG     CLOUDY    49  36  61 NE9       30.05F
SUMTER SHAW    CLOUDY    49  33  53 N9        30.05F

.........WESTERN SC.........

CITY           SKY/WX    TMP DP  RH WIND       PRES   REMARKS
GREENVILLE     NOT AVBL
ROCK HILL      MOSUNNY   53  30  41 VRB7      30.08F
ANDERSON       CLOUDY    53  31  42 NE7       30.06F
CLEMSON        NOT AVBL
GREENWOOD      MOSUNNY   55  34  45 VRB5      30.08F


...................COASTAL AND OFFSHORE REPORTS..................

................LOCAL PIERS AND NC RESERVE................


STATION/POSITION TIME  SKY/WX   TEMP    WIND        PRES    VSBY
                                AIR SEA DIR/SP/G
                 (UTC)          (F)     (DEG/KT/KT) (MB)    (MI)
JOHNY MRCER PIER 1736            49 62   10/  8/ 10 1018.1F
NC RESRV MASNBRO 1645            50      40/  3     1018.0
OCEAN CREST PIER NOT AVBL
SPRINGMAID  PIER 1736                               1017.0F


................COASTAL AND OFFSHORE BUOYS................


STATION/POSITION TIME  SKY/WX   TEMP    WIND        PRES    VSBY
                                AIR SEA DIR/SP/G
                 (UTC)          (F)     (DEG/KT/KT) (MB)    (MI)
DIMNDSHOAL 41025 1800            57 72   10/ 14/ 17 1017.7
CAPE LOOKOUT     1800                    10/ 13/ 16 1018.1F
ONSLOW BAY 41036 NOT AVBL
ONSLOW BAY 41064 1708            55 67   50/ 14/ 19 1018.0F
ONSLOW BAY 41159 1800               67                N/A
WVE H/P(F/S)=  6/ 9 SWL H/P/D(F/S/D)=  2/110/11

MASNBO INL 41110 1759               63                N/A
WVE H/P(F/S)=  4/10

WILM HARBR 41108 1800               62                N/A
WVE H/P(F/S)=  4/ 9

27SE WRITB 41037 1708            56 71   50/ 16/ 23 1017.5F
FRYING PAN 41013 1800            61 72   30/ 19/ 23 1015.5
SUNST NRSH 41024 1708            47 61   40/ 10/ 12 1018.0F
CAPRS NRSH 41029 1708            51 62   40/ 16/ 21 1016.3F
EDISTO     41004 1800            65 75   30/ 21/ 25 1014.8


..........OFFSHORE BUOYS BEYOND 100 NM OFFSHORE...........
.....IN A TRIANGLE---HAT TO BERMUDA TO BAHAMAS TO HAT.....


STATION/POSITION TIME  SKY/WX   TEMP    WIND        PRES    VSBY
                                AIR SEA DIR/SP/G
                 (UTC)          (F)     (DEG/KT/KT) (MB)    (MI)
150E HAT   41001 NOT AVBL
W BERMUDA  41048 1800            74 76   30/  8/ 12 1012.5
ATLANTIC S 41049 1750            79 79  220/ 14/ 17 1012.0F
WVE H/P(F/S)=  7/ 8 SWL H/P/D(F/S/D)=  5/110/ 8

E BAHAMAS  41046 1800            80 81  190/  6/  8 1013.0
NE BAHAMAS 41047 1800            74 80   50/  4/  6 1013.0
120E CANVRL41010 NOT AVBL

END



USA.gov is the U.S. government's official web portal to all federal, state and local government web resources and services.